TimeCST,TemperatureF,Dew PointF,Humidity,Sea Level PressureIn,VisibilityMPH,Wind Direction,Wind SpeedMPH,Gust SpeedMPH,PrecipitationIn,Events,Conditions,WindDirDegrees,DateUTC
12:52 AM,27.0,21.9,81,30.50,-9999.0,SSE,6.9,-,N/A,,Clear,160,2013-01-18 06:52:00
1:52 AM,26.1,21.9,84,30.51,10.0,South,6.9,-,N/A,,Clear,170,2013-01-18 07:52:00
2:52 AM,26.1,21.9,84,30.51,10.0,SSE,8.1,-,N/A,,Clear,160,2013-01-18 08:52:00
3:52 AM,27.0,23.0,85,30.48,10.0,South,9.2,-,N/A,,Clear,170,2013-01-18 09:52:00
4:52 AM,27.0,23.0,85,30.48,10.0,SSE,10.4,-,N/A,,Clear,160,2013-01-18 10:52:00
5:52 AM,28.0,23.0,81,30.46,10.0,SSE,9.2,-,N/A,,Clear,160,2013-01-18 11:52:00
6:52 AM,28.0,24.1,85,30.46,10.0,SSE,10.4,-,N/A,,Clear,160,2013-01-18 12:52:00
7:52 AM,28.9,24.1,82,30.45,10.0,SSE,12.7,-,N/A,,Clear,150,2013-01-18 13:52:00
8:52 AM,34.0,26.1,73,30.45,10.0,SSE,15.0,-,N/A,,Clear,160,2013-01-18 14:52:00
9:52 AM,39.9,28.0,63,30.45,10.0,South,15.0,-,N/A,,Clear,180,2013-01-18 15:52:00
10:52 AM,45.0,28.0,52,30.43,10.0,SSW,15.0,-,N/A,,Clear,200,2013-01-18 16:52:00
11:52 AM,48.0,-9999,N/A,30.38,10.0,South,17.3,-,N/A,,Clear,190,2013-01-18 17:52:00
12:52 PM,52.0,28.9,41,30.32,10.0,SSW,15.0,-,N/A,,Clear,200,2013-01-18 18:52:00
1:52 PM,55.9,25.0,30,30.29,10.0,SW,20.7,27.6,N/A,,Clear,220,2013-01-18 19:52:00
2:52 PM,57.0,21.0,25,30.27,10.0,SW,24.2,32.2,N/A,,Clear,220,2013-01-18 20:52:00
3:52 PM,55.9,21.0,26,30.25,10.0,SW,18.4,26.5,N/A,,Clear,220,2013-01-18 21:52:00
4:52 PM,53.1,21.0,29,30.24,10.0,SSW,13.8,-,N/A,,Clear,200,2013-01-18 22:52:00
5:52 PM,46.0,21.9,39,30.23,10.0,South,11.5,-,N/A,,Clear,190,2013-01-18 23:52:00
6:52 PM,46.9,21.9,37,30.22,10.0,South,15.0,-,N/A,,Clear,190,2013-01-19 00:52:00
7:52 PM,46.0,23.0,40,30.22,10.0,South,17.3,-,N/A,,Clear,190,2013-01-19 01:52:00
8:52 PM,44.1,25.0,47,30.20,10.0,South,15.0,-,N/A,,Clear,190,2013-01-19 02:52:00
9:52 PM,42.1,27.0,55,30.19,10.0,South,15.0,-,N/A,,Clear,180,2013-01-19 03:52:00
10:52 PM,41.0,27.0,57,30.18,10.0,South,12.7,-,N/A,,Clear,190,2013-01-19 04:52:00
11:52 PM,37.0,26.1,65,30.18,10.0,South,10.4,-,N/A,,Clear,180,2013-01-19 05:52:00